TimeCAT,TemperatureF,Dew PointF,Humidity,Sea Level PressureIn,VisibilityMPH,Wind Direction,Wind SpeedMPH,Gust SpeedMPH,PrecipitationIn,Events,Conditions,WindDirDegrees,DateUTC
12:00 AM,75.2,59.0,57,29.95,-9999.0,NE,2.3,-,N/A,,Clear,50,2013-02-13 22:00:00
4:00 AM,69.8,59.0,68,29.95,-9999.0,East,2.3,-,N/A,,Clear,100,2013-02-14 02:00:00
5:00 AM,68.0,59.0,73,29.95,-9999.0,ESE,6.9,-,N/A,,Clear,110,2013-02-14 03:00:00
6:00 AM,68.0,59.0,73,29.98,-9999.0,East,6.9,-,N/A,,Clear,90,2013-02-14 04:00:00
8:00 AM,73.4,57.2,57,29.98,-9999.0,ENE,6.9,-,N/A,,Clear,60,2013-02-14 06:00:00
9:00 AM,77.0,57.2,50,30.01,-9999.0,NE,6.9,-,N/A,,Clear,50,2013-02-14 07:00:00
10:00 AM,78.8,62.6,57,29.98,-9999.0,ENE,11.5,-,N/A,,Clear,60,2013-02-14 08:00:00
11:00 AM,84.2,57.2,40,29.98,-9999.0,ENE,4.6,-,N/A,,Clear,60,2013-02-14 09:00:00
12:00 PM,87.8,55.4,33,29.95,-9999.0,Variable,4.6,-,N/A,,Clear,0,2013-02-14 10:00:00
1:00 PM,89.6,53.6,29,29.95,6.2,Variable,4.6,-,N/A,,Partly Cloudy,0,2013-02-14 11:00:00
2:00 PM,91.4,53.6,28,29.92,6.2,Variable,4.6,-,N/A,,Partly Cloudy,0,2013-02-14 12:00:00
3:00 PM,93.2,50.0,23,29.89,6.2,Variable,6.9,-,N/A,,Partly Cloudy,0,2013-02-14 13:00:00
4:00 PM,93.2,50.0,23,29.86,6.2,Variable,5.8,-,N/A,,Partly Cloudy,0,2013-02-14 14:00:00
5:00 PM,95.0,50.0,22,29.83,6.2,NE,8.1,-,N/A,,Partly Cloudy,40,2013-02-14 15:00:00
6:00 PM,91.4,50.0,24,29.83,6.2,East,4.6,-,N/A,,Partly Cloudy,90,2013-02-14 16:00:00
7:00 PM,87.8,53.6,31,29.86,6.2,SSW,11.5,-,N/A,,Scattered Clouds,200,2013-02-14 17:00:00
8:00 PM,86.0,55.4,35,29.89,-9999.0,South,6.9,-,N/A,,Clear,180,2013-02-14 18:00:00
9:00 PM,84.2,55.4,37,29.89,-9999.0,South,5.8,-,N/A,,Clear,190,2013-02-14 19:00:00
10:00 PM,78.8,59.0,51,29.92,-9999.0,NNE,4.6,-,N/A,,Clear,30,2013-02-14 20:00:00
11:00 PM,78.8,57.2,47,29.92,-9999.0,NE,6.9,-,N/A,,Clear,50,2013-02-14 21:00:00